ATLAS 5 CENTAUR DEB, 43970

Orbit data source: Space-Track

ATLAS 5 CENTAUR DEB, 43970 is space debris in HEO originally from a launch on Wed, 17 Sep 2014 UTC launched from the Air Force Eastern Test Range (AFETR). Debris objects in space refer to the collection of defunct objects orbiting the Earth. Examples of debris include non-operational satellites, rocket bodies, and fragments generated from explosions, collisions, or faulty payload assembly.

Loading next visibility...
Identifier
43970, 2014-055Z
Orbit
HEO
Country
Flag of USUS
Related business
Flag of USUnited Launch Alliance/Lockheed Martin (US)
Manufacturer
Unknown
Mission
Spacecraft
Bus & Motor
Unknown
Mass
Unknown
Launch date (UTC)
2014-09-17 (11 years ago)
Launch vehicle
Unknown
Launch site
Air Force Eastern Test Range (AFETR)
Object type
Payload
Rocket body
Debris
Shape & HBR
Unknown shape, 1.1 m
Radar Cross Section
Small (<0.1 m²)

Expand to show TLE details & history
Last TLE update: 23 hours ago

TLE from 23 hours ago
0 ATLAS 5 CENTAUR DEB
1 43970U 14055Z   26065.17846539 -.00000100  00000-0  00000-0 0  9992
2 43970  20.4546 137.2037 4779650 178.4504 183.8442  1.90355274 52212
Epoch: 2026-03-06T04:16Z
TLE epoch observation values (Epoch: 2026-03-06T04:16:59.409Z)
Latitude
0.00002°
Longitude
-90.93092°
Altitude
34,263.028 km
Speed
2.263 km/s
True Right ascension
09h 08m 56s
True Declination
0° 00' 00"
Sunlit
Object was in daylight at epoch
Visualization orbit readout
Latitude
Unknown
Longitude
Unknown
Altitude
Unknown
Speed
Unknown
Apparent Right ascension
Unknown
Apparent Declination
Unknown
Sunlit
N/A
Visualization observer readout
Local Sidereal Time
06:46:31
Azimuth
Unknown
Elevation
Unknown
Doppler factor
Unknown
Orbital elements
Apogee altitude
34,271.199 km
Perigee altitude
7,979.697 km
Semi-major axis
27,503.585 km
Eccentricity
0.47797
Inclination
20.4546°
RAAN
137.2037°
Arg. of periapsis
178.4504°
True anomaly
181.54617°
Mean anomaly
183.8442°
Eccentric anomaly
182.6013°
Mean motion
0.47584 °/min
Orbital period
756.56 mins
BSTAR
0
Loading maneuver chart data...
Computing Atmospheric mass density...

Documentation

Showing up to 5 results
|